Plymouth, NH

12:33 PM EDT on April 26, 2017 (GMT -0400)
Plymouth

Weather History for K1P1 - March, 2013

Change the Weather History Date:

Saturday, March 9, 2013

  Actual Average (KLCI) Record (KLCI)
Temperature  
Mean Temperature 40 °F -  
Max Temperature 54 °F 40 °F 71 °F (2016)
Min Temperature 24 °F 16 °F -5 °F (2007)
Degree Days  
Heating Degree Days 26    
Moisture  
Dew Point 19 °F    
Average Humidity 53    
Maximum Humidity 92    
Minimum Humidity 17    
Precipitation  
Precipitation 0.00 in - - ()
Sea Level Pressure  
Sea Level Pressure 30.24 in    
Wind  
Wind Speed 7 mph (WNW)    
Max Wind Speed 14 mph    
Max Gust Speed 23 mph    
Visibility 10 miles    
Events      
Averages and records for this station are not official NWS values.
T = Trace of Precipitation, MM = Missing Value Source: NWS Daily Summary

Daily Weather History Graph

Daily Weather History Graph

Search for Another Location

Airport or City:

Trip Planner

Search our weather history database for the weather conditions in past years. The results will help you decide how hot, cold, wet, or windy it might be!

Date:

Astronomy

Mar. 09, 2013 Rise Set
Actual Time 6:09 AM EST 5:46 PM EST
Civil Twilight 5:40 AM EST 6:14 PM EST
Nautical Twilight 5:07 AM EST 6:48 PM EST
Astronomical Twilight 4:34 AM EST 7:21 PM EST
Moon 4:35 AM EST (3/9) 3:42 PM EST (3/9)
Length of Visible Light 12h 33m
Length of Day
11h 36m
Waning Crescent, 5% of the Moon is Illuminated
Mar 9
Waning Crescent
Mar 11
New
Mar 19
First Quarter
Mar 27
Full
Apr 3
Last Quarter

Hourly Weather History & Observations

Time (EST) Temp. Windchill Dew Point Humidity Pressure Visibility Wind Dir Wind Speed Gust Speed Precip Events Conditions
12:15 AM 32.7 °F 27.3 °F 21.4 °F 63% 30.21 in 10.0 mi WNW 5.8 mph - N/A   Unknown
12:35 AM 35.4 °F 29.7 °F 21.2 °F 56% 30.21 in 10.0 mi West 6.9 mph - N/A   Unknown
12:55 AM 33.6 °F 28.4 °F 21.2 °F 60% 30.21 in 10.0 mi NW 5.8 mph - N/A   Unknown
1:15 AM 32.0 °F 26.4 °F 21.2 °F 64% 30.21 in 10.0 mi NW 5.8 mph - N/A   Unknown
1:35 AM 32.7 °F 27.3 °F 21.2 °F 63% 30.21 in 10.0 mi NW 5.8 mph - N/A   Unknown
2:15 AM 32.9 °F 26.7 °F 21.2 °F 62% 30.21 in 10.0 mi WNW 6.9 mph - N/A   Unknown
2:35 AM 32.0 °F 24.2 °F 21.2 °F 64% 30.20 in 10.0 mi NW 9.2 mph - N/A   Unknown
3:15 AM 31.1 °F 23.7 °F 21.2 °F 67% 30.19 in 10.0 mi NW 8.1 mph - N/A   Unknown
3:35 AM 30.2 °F 23.4 °F 21.0 °F 69% 30.20 in 10.0 mi NW 6.9 mph - N/A   Unknown
4:15 AM 30.7 °F 23.3 °F 20.8 °F 67% 30.20 in 10.0 mi WNW 8.1 mph - N/A   Unknown
4:35 AM 32.0 °F 24.2 °F 21.0 °F 64% 30.21 in 10.0 mi WNW 9.2 mph - N/A   Unknown
5:15 AM 32.0 °F 23.0 °F 21.2 °F 64% 30.22 in 10.0 mi WNW 11.5 mph - N/A   Unknown
5:35 AM 31.5 °F 22.9 °F 21.2 °F 66% 30.22 in 10.0 mi WNW 10.4 mph 17.3 mph N/A   Unknown
5:55 AM 31.1 °F 23.1 °F 21.2 °F 67% 30.23 in 10.0 mi NW 9.2 mph - N/A   Unknown
6:15 AM 31.6 °F 23.7 °F 21.2 °F 65% 30.24 in 10.0 mi WNW 9.2 mph - N/A   Unknown
6:35 AM 31.8 °F 23.9 °F 21.0 °F 64% 30.24 in 10.0 mi NW 9.2 mph 16.1 mph N/A   Unknown
6:55 AM 30.0 °F 21.7 °F 20.7 °F 68% 30.25 in 10.0 mi NNW 9.2 mph - N/A   Unknown
7:15 AM 31.1 °F 21.9 °F 20.7 °F 65% 30.25 in 10.0 mi NW 11.5 mph - N/A   Unknown
7:35 AM 32.0 °F 23.0 °F 20.8 °F 63% 30.26 in 10.0 mi WNW 11.5 mph - N/A   Unknown
7:55 AM 32.7 °F 23.0 °F 20.8 °F 62% 30.25 in 10.0 mi NW 13.8 mph - N/A   Unknown
8:15 AM 33.4 °F 23.9 °F 20.3 °F 59% 30.25 in 10.0 mi WNW 13.8 mph - N/A   Unknown
8:35 AM 34.0 °F 25.0 °F 20.5 °F 58% 30.25 in 10.0 mi WNW 12.7 mph 23.0 mph N/A   Unknown
9:15 AM 36.9 °F 28.2 °F 19.4 °F 49% 30.24 in 10.0 mi WNW 13.8 mph 18.4 mph N/A   Unknown
9:35 AM 37.8 °F 30.2 °F 19.8 °F 48% 30.24 in 10.0 mi WNW 11.5 mph - N/A   Unknown
10:15 AM 40.1 °F 32.7 °F 18.9 °F 43% 30.24 in 10.0 mi WNW 12.7 mph 16.1 mph N/A   Unknown
10:35 AM 41.2 °F 34.5 °F 18.7 °F 40% 30.24 in 10.0 mi West 11.5 mph 18.4 mph N/A   Unknown
10:55 AM 42.6 °F 36.3 °F 18.7 °F 38% 30.24 in 10.0 mi WNW 11.5 mph 16.1 mph N/A   Unknown
11:15 AM 43.7 °F 37.3 °F 18.1 °F 36% 30.24 in 10.0 mi WNW 12.7 mph - N/A   Unknown
11:35 AM 45.1 °F 39.9 °F 17.2 °F 33% 30.24 in 10.0 mi West 10.4 mph 20.7 mph N/A   Unknown
11:55 AM 46.6 °F - 16.9 °F 31% 30.24 in 10.0 mi West 13.8 mph 18.4 mph N/A   Unknown
12:15 PM 47.7 °F - 16.0 °F 28% 30.23 in 10.0 mi West 9.2 mph - N/A   Unknown
12:35 PM 48.7 °F - 15.4 °F 27% 30.23 in 10.0 mi West 9.2 mph 18.4 mph N/A   Unknown
12:55 PM 48.6 °F - 15.4 °F 27% 30.22 in 10.0 mi West 9.2 mph - N/A   Unknown
1:15 PM 49.3 °F - 14.4 °F 25% 30.21 in 10.0 mi WNW 10.4 mph - N/A   Unknown
1:35 PM 49.6 °F - 14.5 °F 25% 30.21 in 10.0 mi WNW 11.5 mph - N/A   Unknown
1:55 PM 50.4 °F - 14.0 °F 23% 30.21 in 10.0 mi West 13.8 mph - N/A   Unknown
2:15 PM 51.4 °F - 13.3 °F 22% 30.20 in 10.0 mi West 8.1 mph 16.1 mph N/A   Unknown
2:35 PM 52.3 °F - 11.5 °F 20% 30.20 in 10.0 mi West 9.2 mph - N/A   Unknown
2:55 PM 53.1 °F - 11.7 °F 19% 30.20 in 10.0 mi West 4.6 mph 16.1 mph N/A   Unknown
3:15 PM 53.8 °F - 10.0 °F 17% 30.20 in 10.0 mi WSW 4.6 mph - N/A   Unknown
3:35 PM 54.5 °F - 9.9 °F 17% 30.21 in 10.0 mi WSW 5.8 mph - N/A   Unknown
3:55 PM 54.3 °F - 9.3 °F 17% 30.21 in 10.0 mi West 5.8 mph - N/A   Unknown
4:15 PM 53.8 °F - 10.6 °F 18% 30.21 in 10.0 mi West 6.9 mph - N/A   Unknown
4:35 PM 53.4 °F - 11.1 °F 19% 30.22 in 10.0 mi West 4.6 mph - N/A   Unknown
4:55 PM 53.1 °F - 11.3 °F 19% 30.22 in 10.0 mi West 6.9 mph - N/A   Unknown
5:15 PM 52.2 °F - 13.3 °F 21% 30.23 in 10.0 mi West 4.6 mph - N/A   Unknown
5:35 PM 50.4 °F - 14.5 °F 24% 30.24 in 10.0 mi West 4.6 mph - N/A   Unknown
6:15 PM 43.7 °F - 19.4 °F 38% 30.26 in 10.0 mi Calm Calm - N/A   Unknown
6:35 PM 38.8 °F - 23.0 °F 53% 30.27 in 10.0 mi Calm Calm - N/A   Unknown
6:55 PM 36.5 °F - 23.9 °F 60% 30.28 in 10.0 mi Calm Calm - N/A   Unknown
7:15 PM 34.2 °F - 25.0 °F 69% 30.28 in 10.0 mi Calm Calm - N/A   Unknown
7:35 PM 32.7 °F - 25.3 °F 74% 30.28 in 10.0 mi Calm Calm - N/A   Unknown
7:55 PM 32.2 °F - 25.3 °F 76% 30.28 in 10.0 mi Calm Calm - N/A   Unknown
8:15 PM 31.5 °F - 25.9 °F 80% 30.29 in 10.0 mi Calm Calm - N/A   Unknown
8:35 PM 30.6 °F - 24.8 °F 79% 30.30 in 10.0 mi Calm Calm - N/A   Unknown
8:55 PM 29.8 °F - 23.5 °F 77% 30.31 in 10.0 mi Calm Calm - N/A   Unknown
9:15 PM 29.1 °F - 24.1 °F 81% 30.32 in 10.0 mi Calm Calm - N/A   Unknown
9:35 PM 29.1 °F - 23.9 °F 81% 30.31 in 10.0 mi Calm Calm - N/A   Unknown
9:55 PM 28.4 °F - 23.7 °F 83% 30.32 in 10.0 mi Calm Calm - N/A   Unknown
10:15 PM 27.5 °F - 23.5 °F 85% 30.32 in 10.0 mi Calm Calm - N/A   Unknown
10:55 PM 26.4 °F - 23.7 °F 90% 30.34 in 10.0 mi Calm Calm - N/A   Unknown
11:15 PM 26.6 °F - 23.5 °F 88% 30.34 in 10.0 mi Calm Calm - N/A   Unknown
11:35 PM 25.3 °F - 23.0 °F 91% 30.34 in 10.0 mi Calm Calm - N/A   Unknown
11:55 PM 24.8 °F - 22.8 °F 92% 30.34 in 10.0 mi Calm Calm - N/A   Unknown